GW4629 Weather Reports


time (UTC)temp
F
wind
direction
speed
knots
gust
knots
rain 1hr
in
rain 24hr
in
rain mn
in
humidity
%
barometer
mb
20260504214643 46 77 1.7 1.7 0.00 0.02 0.02 99 1014.9
20260504214140 46 296 3.5 3.5 0.05 0.02 0.02 99 1014.9
20260504213636 46 296 3.5 3.5 0.05 0.02 0.02 99 1014.9
20260504213133 46 312 5.2 6.1 0.00 0.01 0.01 99 1014.9
20260504212629 46 312 5.2 6.1 0.00 0.01 0.01 99 1014.9
20260504212126 46 334 5.2 7.0 0.07 0.01 0.01 99 1014.8
20260504211624 46 334 5.2 7.0 0.07 0.01 0.01 99 1014.8
20260504211120 48 274 7.0 7.8 0.00 0.00 0.00 99 1014.9
20260504210618 48 274 7.0 7.8 0.00 0.00 0.00 99 1014.9
20260504210114 49 282 3.5 7.0 0.00 0.00 0.00 99 1014.6
20260504205612 49 282 3.5 7.0 0.00 0.00 0.00 99 1014.6
20260504205109 50 259 4.3 6.1 0.00 0.00 0.00 99 1014.1
20260504204608 50 259 4.3 6.1 0.00 0.00 0.00 99 1014.1
20260504204106 53 259 8.7 9.6 0.00 0.00 0.00 99 1013.8
20260504203604 53 259 8.7 9.6 0.00 0.00 0.00 99 1013.8
20260504203101 51 326 7.0 8.7 0.00 0.00 0.00 99 1013.9
20260504202556 51 326 7.0 8.7 0.00 0.00 0.00 99 1013.9
20260504202054 51 262 8.7 8.7 0.00 0.00 0.00 99 1013.7
20260504201550 51 262 8.7 8.7 0.00 0.00 0.00 99 1013.7
20260504201049 53 273 4.3 6.1 0.00 0.00 0.00 99 1013.4
20260504200544 53 273 4.3 6.1 0.00 0.00 0.00 99 1013.4
20260504200042 55 87 5.2 7.8 0.00 0.00 0.00 99 1013.3
20260504195537 55 87 5.2 7.8 0.00 0.00 0.00 99 1013.3
20260504195034 55 201 7.8 9.6 0.00 0.00 0.00 99 1013.3
20260504194531 55 201 7.8 9.6 0.00 0.00 0.00 99 1013.3
20260504194026 55 262 3.5 7.0 0.00 0.00 0.00 99 1013.8
20260504193523 55 262 3.5 7.0 0.00 0.00 0.00 99 1013.8
20260504193022 56 322 5.2 8.7 0.00 0.00 0.00 99 1013.8
20260504192520 56 322 5.2 8.7 0.00 0.00 0.00 99 1013.8
20260504192018 55 44 6.1 8.7 0.00 0.00 0.00 99 1013.2
20260504191515 55 44 6.1 8.7 0.00 0.00 0.00 99 1013.2
20260504191011 57 42 7.0 8.7 0.00 0.00 0.00 99 1013.2
20260504190507 57 42 7.0 8.7 0.00 0.00 0.00 99 1013.2
20260504190003 59 134 10.4 12.2 0.00 0.00 0.00 99 1013.4
20260504185500 59 134 10.4 12.2 0.00 0.00 0.00 99 1013.4
20260504184957 61 73 13.9 16.5 0.00 0.00 0.00 99 1013.3
20260504184452 61 73 13.9 16.5 0.00 0.00 0.00 99 1013.3
20260504183948 61 99 13.0 14.8 0.00 0.00 0.00 99 1013.4
20260504183446 61 99 13.0 14.8 0.00 0.00 0.00 99 1013.4
20260504182944 58 150 14.8 15.6 0.00 0.00 0.00 99 1013.4
20260504182440 58 150 14.8 15.6 0.00 0.00 0.00 99 1013.4
20260504181938 59 90 13.9 15.6 0.00 0.00 0.00 99 1013.3
20260504181434 59 90 13.9 15.6 0.00 0.00 0.00 99 1013.3
20260504180933 59 82 11.3 15.6 0.00 0.00 0.00 99 1013.2
20260504180432 59 82 11.3 15.6 0.00 0.00 0.00 99 1013.2
20260504175930 62 53 7.0 8.7 0.00 0.00 0.00 99 1013.4
20260504175426 62 53 7.0 8.7 0.00 0.00 0.00 99 1013.4
20260504174924 60 85 7.0 8.7 0.00 0.00 0.00 99 1013.6
20260504174421 60 85 7.0 8.7 0.00 0.00 0.00 99 1013.6
20260504173919 59 153 11.3 13.0 0.00 0.00 0.00 99 1013.7
20260504173414 59 153 11.3 13.0 0.00 0.00 0.00 99 1013.7
20260504172913 61 77 6.1 7.8 0.00 0.00 0.00 99 1013.8
20260504172408 61 77 6.1 7.8 0.00 0.00 0.00 99 1013.8
20260504171905 60 86 11.3 13.0 0.00 0.00 0.00 99 1013.8
20260504171402 60 86 11.3 13.0 0.00 0.00 0.00 99 1013.8
20260504170859 60 58 15.6 18.2 0.00 0.00 0.00 99 1013.8
20260504170355 60 58 15.6 18.2 0.00 0.00 0.00 99 1013.8
20260504160314 57 136 9.6 11.3 0.00 0.00 0.00 99 1013.7
20260504150739 54 118 12.2 13.9 0.00 0.00 0.00 99 1014.2
20260504150236 54 118 12.2 13.9 0.00 0.00 0.00 99 1014.2
20260504141205 53 51 7.8 11.3 0.00 0.00 0.00 99 1014.3
20260504140702 52 83 7.8 11.3 0.00 0.00 0.00 99 1014.1
20260504140157 52 83 7.8 11.3 0.00 0.00 0.00 99 1014.1
20260504130626 46 132 6.1 7.0 0.00 0.00 0.00 99 1013.7
20260504130123 46 124 6.1 7.8 0.00 0.00 0.00 99 1013.8
20260504110514 45 88 7.8 7.8 0.00 0.00 0.00 99 1013.8
20260504100430 44 145 7.8 9.6 0.00 0.00 0.00 99 1013.9
20260504081823 46 149 5.2 6.1 0.00 0.00 0.00 99 1015.2
20260504081320 46 149 5.2 6.1 0.00 0.00 0.00 99 1015.2
20260504080816 46 121 4.3 5.2 0.00 0.00 0.00 99 1015.3
20260504080313 46 121 4.3 5.2 0.00 0.00 0.00 99 1015.3
20260504070240 48 97 3.5 3.5 0.00 0.00 0.00 99 1016.1
20260504060201 49 21 1.7 1.7 0.00 0.00 0.00 99 1016.6
20260504050629 50 242 2.6 2.6 0.00 0.00 0.00 99 1016.9
20260504050126 50 242 2.6 2.6 0.00 0.00 0.00 99 1016.9
20260504045623 50 314 3.5 3.5 0.00 0.00 0.00 99 1016.8
20260504045118 50 314 3.5 3.5 0.00 0.00 0.00 99 1016.8
20260504044616 51 259 3.5 5.2 0.00 0.00 0.00 99 1016.9
20260504044112 51 259 3.5 5.2 0.00 0.00 0.00 99 1016.9
20260504043610 52 234 3.5 3.5 0.00 0.00 0.00 99 1017.1
20260504043107 52 234 3.5 3.5 0.00 0.00 0.00 99 1017.1
20260504042604 53 278 5.2 6.1 0.00 0.00 0.00 99 1016.9
20260504042100 53 278 5.2 6.1 0.00 0.00 0.00 99 1016.9
20260504041556 54 265 1.7 1.7 0.00 0.00 0.00 99 1016.9
20260504041053 54 265 1.7 1.7 0.00 0.00 0.00 99 1016.9
20260504040550 54 199 1.7 1.7 0.00 0.00 0.00 99 1016.8
20260504040047 55 83 0.9 0.9 0.00 0.00 0.00 99 1017.1
20260504035543 55 83 0.9 0.9 0.00 0.00 0.00 99 1017.1
20260504035040 54 145 1.7 1.7 0.00 0.00 0.00 99 1017.2
20260504034538 54 145 1.7 1.7 0.00 0.00 0.00 99 1017.2
20260504034034 55 129 0.0 0.0 0.00 0.00 0.00 99 1017.1
20260504033533 55 129 0.0 0.0 0.00 0.00 0.00 99 1017.1
20260504033030 55 156 3.5 6.1 0.00 0.00 0.00 99 1017.1
20260504032527 55 156 3.5 6.1 0.00 0.00 0.00 99 1017.1
20260504032023 55 27 1.7 2.6 0.00 0.00 0.00 99 1016.9
20260504031520 55 27 1.7 2.6 0.00 0.00 0.00 99 1016.9
20260504031016 56 87 3.5 5.2 0.00 0.00 0.00 99 1016.8
20260504030514 56 87 3.5 5.2 0.00 0.00 0.00 99 1016.8
20260504030010 56 251 1.7 3.5 0.00 0.00 0.00 99 1016.7
20260504025507 56 251 1.7 3.5 0.00 0.00 0.00 99 1016.7
20260504025004 56 27 1.7 1.7 0.00 0.00 0.00 99 1016.7
20260504024500 56 27 1.7 1.7 0.00 0.00 0.00 99 1016.7
20260504023958 56 166 7.0 7.8 0.00 0.00 0.00 99 1016.3
20260504023454 56 166 7.0 7.8 0.00 0.00 0.00 99 1016.3
20260504022950 56 153 4.3 6.1 0.00 0.00 0.00 99 1016.3
20260504022446 56 153 4.3 6.1 0.00 0.00 0.00 99 1016.3
20260504021943 57 178 6.1 7.8 0.00 0.00 0.00 99 1016.4
20260504021440 57 178 6.1 7.8 0.00 0.00 0.00 99 1016.4
20260504020937 57 154 5.2 7.0 0.00 0.00 0.00 99 1016.3
20260504020434 57 154 5.2 7.0 0.00 0.00 0.00 99 1016.3
20260504015931 57 172 2.6 3.5 0.00 0.00 0.00 99 1016.3
20260504015427 57 172 2.6 3.5 0.00 0.00 0.00 99 1016.3
20260504014923 57 139 2.6 5.2 0.00 0.00 0.00 99 1016.3
20260504014419 57 139 2.6 5.2 0.00 0.00 0.00 99 1016.3
20260504013916 58 211 4.3 6.1 0.00 0.00 0.00 99 1016.1
20260504013415 58 211 4.3 6.1 0.00 0.00 0.00 99 1016.1
20260504012910 58 271 3.5 5.2 0.00 0.00 0.00 99 1016.1
20260504012408 58 271 3.5 5.2 0.00 0.00 0.00 99 1016.1
20260504011905 59 246 4.3 6.1 0.00 0.00 0.00 99 1016.3
20260504011402 59 246 4.3 6.1 0.00 0.00 0.00 99 1016.3
20260504010858 59 139 4.3 7.0 0.00 0.00 0.00 99 1016.1
20260504010354 59 139 4.3 7.0 0.00 0.00 0.00 99 1016.1
20260504005850 59 273 5.2 8.7 0.00 0.00 0.00 99 1016.1
20260504005347 59 273 5.2 8.7 0.00 0.00 0.00 99 1016.1
20260504004845 59 244 3.5 5.2 0.00 0.00 0.00 99 1016.1
20260504004343 59 244 3.5 5.2 0.00 0.00 0.00 99 1016.1
20260504003839 59 161 8.7 11.3 0.00 0.00 0.00 99 1016.2
20260504003336 59 161 8.7 11.3 0.00 0.00 0.00 99 1016.2
20260504002832 60 274 5.2 8.7 0.00 0.00 0.00 99 1015.9
20260504002329 60 274 5.2 8.7 0.00 0.00 0.00 99 1015.9
20260504001827 61 289 3.5 6.1 0.00 0.00 0.00 99 1016.1
20260504001324 61 289 3.5 6.1 0.00 0.00 0.00 99 1016.1
20260504000821 62 262 5.2 7.8 0.00 0.00 0.00 99 1016.1
20260504000318 62 262 5.2 7.8 0.00 0.00 0.00 99 1016.1
20260503235815 60 152 13.9 16.5 0.00 0.00 0.00 99 1016.4
20260503235313 60 152 13.9 16.5 0.00 0.00 0.00 99 1016.4
20260503234810 60 199 13.0 15.6 0.00 0.00 0.00 99 1015.9
20260503234308 60 199 13.0 15.6 0.00 0.00 0.00 99 1015.9
20260503233806 60 166 8.7 13.0 0.00 0.00 0.00 99 1015.9
20260503233301 60 166 8.7 13.0 0.00 0.00 0.00 99 1015.9
20260503232758 60 129 3.5 5.2 0.00 0.00 0.00 99 1016.4
20260503232255 60 129 3.5 5.2 0.00 0.00 0.00 99 1016.4
20260503231753 61 164 8.7 13.0 0.00 0.00 0.00 99 1016.3
20260503231250 61 164 8.7 13.0 0.00 0.00 0.00 99 1016.3
20260503230745 61 125 7.8 11.3 0.00 0.00 0.00 99 1016.4
20260503230243 61 125 7.8 11.3 0.00 0.00 0.00 99 1016.4
20260503225741 60 180 12.2 14.8 0.00 0.00 0.00 99 1016.6
20260503225241 60 180 12.2 14.8 0.00 0.00 0.00 99 1016.6
20260503224738 61 256 6.1 7.8 0.00 0.00 0.00 99 1016.2
20260503224236 61 256 6.1 7.8 0.00 0.00 0.00 99 1016.2
20260503223733 60 151 5.2 8.7 0.00 0.00 0.00 99 1016.6
20260503223231 60 151 5.2 8.7 0.00 0.00 0.00 99 1016.6
20260503222727 59 38 7.0 9.6 0.00 0.00 0.00 99 1016.3
20260503222225 59 38 7.0 9.6 0.00 0.00 0.00 99 1016.3
20260503221723 60 167 11.3 13.0 0.00 0.00 0.00 99 1016.6
20260503221220 60 167 11.3 13.0 0.00 0.00 0.00 99 1016.6
20260503220717 60 167 8.7 11.3 0.00 0.00 0.00 99 1017.2
20260503220214 60 167 8.7 11.3 0.00 0.00 0.00 99 1017.2
20260503215710 62 158 13.0 13.9 0.00 0.00 0.00 99 1017.2
20260503215207 62 158 13.0 13.9 0.00 0.00 0.00 99 1017.2